Moline, IL

8:37 AM CDT on June 22, 2017 (GMT -0500)
Quad-City International

Weather History for KMLI - November, 2011

Change the Weather History Date:

Sunday, November 20, 2011

  Actual Average Record
Temperature  
Mean Temperature 38 °F 38 °F  
Max Temperature 41 °F 47 °F 73 °F (1913)
Min Temperature 35 °F 29 °F 8 °F (1880)
Degree Days  
Heating Degree Days 27 27  
Month to date heating degree days 405 445  
Since 1 July heating degree days 919 927  
Cooling Degree Days 0 0  
Month to date cooling degree days 0 0  
Year to date cooling degree days 1126 1003  
Moisture  
Dew Point 30 °F    
Average Humidity 76    
Maximum Humidity 82    
Minimum Humidity 70    
Precipitation  
Precipitation 0.00 in 0.09 in 2.00 in (1992)
Month to date precipitation 3.87 1.73  
Year to date precipitation 31.60 34.95  
Snow  
Snow 0.00 in 0.10 in - ()
Month to date snowfall 0.3 0.4  
Since 1 July snowfall 0.3 0.4  
Since 1 September snowfall 0.3 0.4  
Snow Depth 0.00 in    
Sea Level Pressure  
Sea Level Pressure 30.25 in    
Wind  
Wind Speed 8 mph (NNE)    
Max Wind Speed 20 mph    
Max Gust Speed 26 mph    
Visibility 10 miles    
Events      
T = Trace of Precipitation, MM = Missing Value Source: NWS Daily Summary

Daily Weather History Graph

Daily Weather History Graph

Search for Another Location

Airport or City:

Trip Planner

Search our weather history database for the weather conditions in past years. The results will help you decide how hot, cold, wet, or windy it might be!

Date:

Astronomy

Nov. 20, 2011 Rise Set
Actual Time 6:56 AM CST 4:38 PM CST
Civil Twilight 6:26 AM CST 5:08 PM CST
Nautical Twilight 5:52 AM CST 5:42 PM CST
Astronomical Twilight 5:19 AM CST 6:15 PM CST
Moon 1:21 AM CST (11/20) 1:30 PM CST (11/20)
Length of Visible Light 10h 42m
Length of Day
9h 42m
Waning Crescent, 27% of the Moon is Illuminated
Nov 20
Waning Crescent
Nov 25
New
Dec 2
First Quarter
Dec 10
Full
Dec 17
Last Quarter

Hourly Weather History & Observations

Time (CST) Temp. Windchill Dew Point Humidity Pressure Visibility Wind Dir Wind Speed Gust Speed Precip Events Conditions
12:52 AM 37.0 °F 29.3 °F 30.0 °F 76% 30.06 in 10.0 mi WNW 11.5 mph 24.2 mph N/A   Overcast
1:52 AM 37.0 °F 27.7 °F 28.9 °F 73% 30.09 in 10.0 mi WNW 16.1 mph 26.5 mph N/A   Overcast
2:52 AM 36.0 °F 28.0 °F 28.9 °F 76% 30.14 in 10.0 mi NW 11.5 mph - N/A   Overcast
3:52 AM 35.1 °F 27.4 °F 28.9 °F 78% 30.15 in 10.0 mi WNW 10.4 mph - N/A   Overcast
4:52 AM 36.0 °F 30.3 °F 28.9 °F 76% 30.16 in 10.0 mi NW 6.9 mph - N/A   Overcast
5:52 AM 36.0 °F 31.1 °F 30.0 °F 79% 30.18 in 10.0 mi NNW 5.8 mph - N/A   Overcast
6:52 AM 36.0 °F 30.3 °F 28.9 °F 76% 30.21 in 10.0 mi NNW 6.9 mph - N/A   Overcast
7:52 AM 36.0 °F 32.1 °F 30.0 °F 79% 30.24 in 10.0 mi NW 4.6 mph - N/A   Overcast
8:52 AM 37.0 °F 33.3 °F 30.0 °F 76% 30.27 in 10.0 mi North 4.6 mph - N/A   Overcast
9:52 AM 37.4 °F 32.1 °F 30.2 °F 75% 30.26 in 10.0 mi North 6.9 mph - N/A   Overcast
10:52 AM 39.9 °F 36.7 °F 30.0 °F 68% 30.30 in 10.0 mi NE 4.6 mph - N/A   Overcast
11:52 AM 39.9 °F 35.1 °F 30.9 °F 70% 30.28 in 10.0 mi North 6.9 mph - N/A   Overcast
12:52 PM 39.9 °F 37.8 °F 30.9 °F 70% 30.29 in 10.0 mi Variable 3.5 mph - N/A   Overcast
1:52 PM 39.9 °F 36.7 °F 30.9 °F 70% 30.28 in 10.0 mi North 4.6 mph - N/A   Overcast
2:31 PM 41.0 °F 38.0 °F 30.2 °F 65% 30.27 in 10.0 mi NNE 4.6 mph - N/A   Overcast
2:52 PM 39.9 °F 36.7 °F 30.9 °F 70% 30.29 in 10.0 mi North 4.6 mph - N/A   Overcast
3:52 PM 39.9 °F 35.8 °F 30.9 °F 70% 30.29 in 10.0 mi NNE 5.8 mph - N/A   Overcast
4:52 PM 39.9 °F 34.5 °F 30.9 °F 70% 30.28 in 10.0 mi NE 8.1 mph - N/A   Overcast
5:52 PM 39.9 °F 32.9 °F 30.0 °F 68% 30.28 in 10.0 mi ENE 11.5 mph - N/A   Scattered Clouds
6:52 PM 39.9 °F 32.9 °F 30.0 °F 68% 30.30 in 10.0 mi ENE 11.5 mph - N/A   Mostly Cloudy
7:52 PM 39.0 °F 33.4 °F 30.0 °F 70% 30.32 in 10.0 mi ENE 8.1 mph - N/A   Overcast
8:16 PM 39.2 °F 33.0 °F 30.2 °F 70% 30.29 in 10.0 mi East 9.2 mph - N/A   Overcast
8:52 PM 39.0 °F 32.8 °F 30.0 °F 70% 30.30 in 10.0 mi ENE 9.2 mph - N/A   Mostly Cloudy
9:52 PM 37.9 °F 30.9 °F 30.0 °F 73% 30.31 in 10.0 mi East 10.4 mph - N/A   Overcast
10:02 PM 37.4 °F 32.1 °F 30.2 °F 75% 30.29 in 10.0 mi ENE 6.9 mph - N/A   Overcast
10:49 PM 37.4 °F 30.8 °F 30.2 °F 75% 30.30 in 10.0 mi ENE 9.2 mph - N/A   Mostly Cloudy
10:52 PM 37.9 °F 31.5 °F 30.0 °F 73% 30.31 in 10.0 mi ENE 9.2 mph - N/A   Overcast
11:52 PM 37.0 °F 31.6 °F 30.0 °F 76% 30.30 in 10.0 mi ENE 6.9 mph - N/A   Mostly Cloudy